Time,TemperatureF,DewpointF,PressureIn,WindDirection,WindDirectionDegrees,WindSpeedMPH,WindSpeedGustMPH,Humidity,HourlyPrecipIn,Conditions,Clouds,dailyrainin,SolarRadiationWatts/m^2,SoftwareType,DateUTC
2013-01-08 00:00:00,30.0,20.0,-100.00,SSW,202,8.0,-999.0,65,-99.99,,,-99.99,0.000000,,2013-01-08 05:00:00,
2013-01-08 00:33:00,30.0,20.0,-100.00,SSW,202,8.0,-999.0,65,-99.99,,,-99.99,0.000000,,2013-01-08 05:33:00,
2013-01-08 00:43:00,30.0,20.0,-100.00,SSW,202,8.0,-999.0,65,-99.99,,,-99.99,0.000000,,2013-01-08 05:43:00,
2013-01-08 00:53:00,30.0,20.0,-100.00,SSW,202,8.0,-999.0,65,-99.99,,,-99.99,0.000000,,2013-01-08 05:53:00,
2013-01-08 03:00:00,29.0,21.0,-100.00,SSW,202,8.0,-999.0,72,-99.99,,,-99.99,0.000000,,2013-01-08 08:00:00,
2013-01-08 03:42:00,29.0,21.0,-100.00,SSW,202,8.0,-999.0,72,-99.99,,,-99.99,0.000000,,2013-01-08 08:42:00,
2013-01-08 03:53:00,29.0,21.0,-100.00,SSW,202,8.0,-999.0,72,-99.99,,,-99.99,0.000000,,2013-01-08 08:53:00,
2013-01-08 06:00:00,26.0,21.0,-100.00,South,180,5.0,-999.0,80,-99.99,,,-99.99,0.000000,,2013-01-08 11:00:00,
2013-01-08 06:42:00,26.0,21.0,-100.00,South,180,5.0,-999.0,80,-99.99,,,-99.99,0.000000,,2013-01-08 11:42:00,
2013-01-08 06:53:00,26.0,21.0,-100.00,South,180,5.0,-999.0,80,-99.99,,,-99.99,0.000000,,2013-01-08 11:53:00,
2013-01-08 09:00:00,26.0,21.0,-100.00,South,180,4.0,-999.0,82,-99.99,,,-99.99,19.719999,,2013-01-08 14:00:00,
2013-01-08 09:43:00,26.0,21.0,-100.00,South,180,4.0,-999.0,82,-99.99,,,-99.99,19.719999,,2013-01-08 14:43:00,
2013-01-08 09:53:00,26.0,21.0,-100.00,South,180,4.0,-999.0,82,-99.99,,,-99.99,19.719999,,2013-01-08 14:53:00,
2013-01-08 12:00:00,32.0,24.0,-100.00,South,180,6.0,-999.0,69,-99.99,,,-99.99,298.119995,,2013-01-08 17:00:00,
2013-01-08 12:43:00,32.0,24.0,-100.00,South,180,6.0,-999.0,69,-99.99,,,-99.99,298.119995,,2013-01-08 17:43:00,
2013-01-08 12:54:00,32.0,24.0,-100.00,South,180,6.0,-999.0,69,-99.99,,,-99.99,298.119995,,2013-01-08 17:54:00,
2013-01-08 15:00:00,38.0,24.0,-100.00,South,180,3.0,-999.0,58,-99.99,,,-99.99,241.279999,,2013-01-08 20:00:00,
2013-01-08 15:43:00,38.0,24.0,-100.00,South,180,3.0,-999.0,58,-99.99,,,-99.99,241.279999,,2013-01-08 20:43:00,
2013-01-08 15:54:00,38.0,24.0,-100.00,South,180,3.0,-999.0,58,-99.99,,,-99.99,241.279999,,2013-01-08 20:54:00,
2013-01-08 18:00:00,35.0,25.0,-100.00,SSE,157,1.0,-999.0,65,-99.99,,,-99.99,15.080000,,2013-01-08 23:00:00,
2013-01-08 18:43:00,35.0,25.0,-100.00,SSE,157,1.0,-999.0,65,-99.99,,,-99.99,15.080000,,2013-01-08 23:43:00,
2013-01-08 18:53:00,35.0,25.0,-100.00,SSE,157,1.0,-999.0,65,-99.99,,,-99.99,15.080000,,2013-01-08 23:53:00,
2013-01-08 21:00:00,33.0,25.0,-100.00,South,180,5.0,-999.0,69,-99.99,,,-99.99,0.000000,,2013-01-09 02:00:00,
2013-01-08 21:43:00,33.0,25.0,-100.00,South,180,5.0,-999.0,69,-99.99,,,-99.99,0.000000,,2013-01-09 02:43:00,
2013-01-08 21:53:00,33.0,25.0,-100.00,South,180,5.0,-999.0,69,-99.99,,,-99.99,0.000000,,2013-01-09 02:53:00,